Location: Brotuna
(46.2000°N, 22.6000°E)
Time: 22:52:46
(UTC+00:00)

CZ-2C R/B - Pass Details

Date: 09 April 2020
Orbit: 785 x 870 km, 98.3° (Epoch: 27 May)

Event Time Altitude Azimuth Distance (km) Brightness Sun altitude
Rises 19:16:14 0° 10° (N) 3,288 6.1 -20.6°
Reaches altitude 10° 19:18:34 10° 7° (N) 2,355 5.4 -21.0°
Maximum altitude 19:23:40 61° 288° (WNW) 892 3.0 -21.6°
Drops below altitude 10° 19:28:48 10° 209° (SSW) 2,361 4.9 -22.3°
Sets 19:31:09 0° 206° (SSW) 3,296 5.6 -22.6°
